Other Public Products
Issued by NWS Charleston, SC

Current Version | Previous Version | Graphics & Text | Print | Product List | Glossary On
Versions: 1 2 3 4 5 6 7 8 9 10 11 12 13 14 15 16 17 18 19 20 21 22 23 24 25 26 27 28 29 30 31 32 33 34 35 36 37 38 39 40 41 42 43 44 45 46 47 48 49 50
000
FPUS82 KCHS 200712
OPUCHS

TEST...KCHS/KSAV Gateway Observations...TEST
National Weather Service Charleston SC
200 AM EST SAT JAN 20 2018

NOTE: "fair" indicates few or no clouds below 12,000 feet with no
significant weather and/or obstructions to visibility.

SCZ050-WAZ558-NCZ071-TXZ119-213-PAZ071-DCZ001-FLZ074-172-MI076-
NYZ176-178-MAZ016-IL014-TNZ027-NJZ106-GAZ044-MD014-200800-

...Gateway Observations for Charleston International...

CITY           SKY/WX    TMP DP  RH WIND       PRES   REMARKS
Chas Airport   FAIR      39  30  70 CALM      30.24S
Seattle        CLOUDY    44  39  82 SW13G23   29.94R
Charlotte      FAIR      33  20  58 CALM      30.15F
Dallas DFW     DRIZZLE   54  51  90 S12       30.01S FOG
Dallas Love    DRIZZLE   52  49  89 S13       30.02F
Philladelphia  FAIR      31  20  63 W7        29.98S WCI  24
Wash National  FAIR      32  20  61 S5        30.01F WCI  27
Baltimore      FAIR      27  20  75 W3        29.99F
Miami          MOCLDY    62  54  74 N5        30.21F
Detroit        MOCLDY    34  24  67 SW20      29.78S WCI  23
Newark         FAIR      34  20  56 SW12      29.92F WCI  25
Laguardia      FAIR      38  19  46 SW12      29.90F WCI  30
J F K          FAIR      31  24  75 SW8       29.94F WCI  23
Boston Logan   MOCLDY    32  20  61 SW13      29.82F WCI  22
Ft. Lauderdale MOCLDY    60  56  86 NW5       30.21F
Chicago O`Hare FAIR      38  27  64 SW14      29.78R WCI  30
Chicago Midway CLOUDY    38  28  67 SW15      29.80R WCI  29
Houston Bush   FOG       52  52 100 E5        30.12F VSB 1/4
Houston Hobby  CLOUDY    52  52 100 E3        30.12F FOG
Nashville      CLOUDY    45  25  45 S8        30.17S
Atlanta        FAIR      36  13  38 W8        30.23F WCI  30

$$

GAZ044-118-TXZ119-213-NCZ071-DCZ001-MDZ014-506-PAZ021-071-NJZ106-
NYZ176-178-MAZ106-OHZ011-021-055-MIZ076-KYZ091-ILZ014-INZ047-
MNZ060-ONZ431-200800-

...Gateway Observations for Savannah International...

CITY           SKY/WX    TMP DP  RH WIND       PRES   REMARKS
Savannah Arpt  FAIR      33  25  72 CALM      30.27S
Atlanta        FAIR      36  13  38 W8        30.23F WCI  30
Charlotte      FAIR      33  20  58 CALM      30.15F
Dallas DFW     DRIZZLE   54  51  90 S12       30.01S FOG
Houston Bush   FOG       52  52 100 E5        30.12F VSB 1/4
Wash National  FAIR      32  20  61 S5        30.01F WCI  27
Wash Dulles    FAIR      24  16  71 CALM      29.99F
Baltimore      FAIR      27  20  75 W3        29.99F
Philadelphia   FAIR      31  20  63 W7        29.98S WCI  24
Newark         FAIR      34  20  56 SW12      29.92F WCI  25
Laguardia      FAIR      38  19  46 SW12      29.90F WCI  30
J F K          FAIR      31  24  75 SW8       29.94F WCI  23
Boston         MOCLDY    32  20  61 SW13      29.82F WCI  22
Pittsburg      FAIR      37  18  46 SW13G23   29.95R WCI  29
Akron          FAIR      32  19  58 SW17      29.90R WCI  21
Cleveland      MOCLDY    38  23  55 SW16G30   29.89R WCI  29
Cincinnati     MOCLDY    36  24  62 SW14G20   30.01S WCI  27
Columbus       FAIR      32  21  64 SW14      29.99S WCI  22
Detroit        MOCLDY    34  24  67 SW20      29.78S WCI  23
Chicago O`Hare FAIR      38  27  64 SW14      29.78R WCI  30
Minneapolis    MOCLDY    31  28  89 CALM      29.74R
Indianapolis   MOCLDY    35  22  58 SW17      29.96S WCI  25
Toronto Canada PTCLDY    34  23  64 SW14G24   29.64S WCI  24

$$




USA.gov is the U.S. government's official web portal to all federal, state and local government web resources and services.